Regional Weather Roundup
Issued by NWS

Home | Current Version | Previous Version | Text Only | Print | Product List | Glossary Off
Versions: 1 2 3 4 5 6 7 8 9 10 11 12 13 14 15 16 17 18 19 20 21 22 23 24 25 26 27 28 29 30 31 32 33 34 35 36 37 38 39 40 41 42 43 44 45 46 47 48 49 50

000
ASUS43 KOAX 292110
RWRNE

WEATHER ROUNDUP FOR NEBRASKA
NATIONAL WEATHER SERVICE OMAHA NE
400 PM CDT WED OCT 29 2014

NOTES: SATELLITE DATA IS BEING USED TO AUGMENT CLOUD COVER ABOVE
       12000 FEET.
       "FAIR" INDICATES FEW OR NO CLOUDS BELOW 12,000 FEET WITH NO
       SIGNIFICANT WEATHER AND/OR OBSTRUCTIONS TO VISIBILITY.

  * THESE STATIONS DO NOT REPORT WEATHER SUCH AS RAIN...SNOW OR FOG.

NEZ001>004-019>022-054>056-292200-
NEBRASKA PANHANDLE

CITY           SKY/WX    TMP DP  RH WIND       PRES   REMARKS
SCOTTSBLUFF    SUNNY     71  20  14 NW15      29.99F
ALLIANCE       MOSUNNY   69  20  15 W14G29    29.97F
CHADRON        MOSUNNY   65  25  22 NW15      29.97R
KIMBALL        MOSUNNY   71  19  14 W20G28    30.01F
SIDNEY         SUNNY     70  23  17 SW18G24   30.01F
$$

NEZ057>060-069>072-079>082-292200-
SOUTHWEST NEBRASKA

CITY           SKY/WX    TMP DP  RH WIND       PRES   REMARKS
NORTH PLATTE   SUNNY     70  19  14 W10G18    29.99F
IMPERIAL       SUNNY     72  18  13 W9G21     30.00F
LEXINGTON      SUNNY     66  30  25 S12       30.02F
MCCOOK         SUNNY     71  28  20 S9        30.02F
OGALLALA       SUNNY     74  25  15 W15G22    29.99F
$$

NEZ005>010-023>029-035>040-094-292200-
NORTH CENTRAL NEBRASKA

CITY           SKY/WX    TMP DP  RH WIND       PRES   REMARKS
VALENTINE      SUNNY     67  22  18 W14       29.96F
AINSWORTH      SUNNY     65  22  19 S9        29.97S
BROKEN BOW     SUNNY     66  29  24 S14       30.00F
O`NEILL        SUNNY     60  30  31 S13       30.01F
ORD            SUNNY     60  29  30 S14G20    30.01F
THEDFORD       SUNNY     68  24  19 W8        29.98S
$$

NEZ041-046>049-061>064-073>077-083>087-292200-
SOUTH CENTRAL NEBRASKA

CITY           SKY/WX    TMP DP  RH WIND       PRES   REMARKS
GRAND ISLAND   SUNNY     61  30  31 S12       30.07F
AURORA         SUNNY     61  28  28 S12       30.07F
HASTINGS       SUNNY     62  29  28 S14G22    30.05F
HEBRON         SUNNY     62  27  26 S12       30.09F
HOLDREGE       SUNNY     64  30  28 S14G21    30.03F
KEARNEY *      SUNNY     64  30  27 S14       30.04F
YORK           SUNNY     59  30  33 S12G17    30.09F
$$

NEZ011>018-030>034-042>045-292200-
NORTHEAST NEBRASKA

CITY           SKY/WX    TMP DP  RH WIND       PRES   REMARKS
NORFOLK        SUNNY     56  30  37 S14       30.07F
ALBION         SUNNY     58  28  32 S12G22    30.06F
BLAIR          SUNNY     56  30  36 SE7       30.11F
COLUMBUS *     SUNNY     57  30  35 S12       30.10F
FREMONT        SUNNY     56  31  37 S7        30.11F
TEKAMAH        SUNNY     56  29  35 S10       30.11F
WAYNE          SUNNY     56  30  37 S8G20     30.09F
$$

NEZ050>053-065>068-078-088>093-292200-
SOUTHEAST NEBRASKA

CITY           SKY/WX    TMP DP  RH WIND       PRES   REMARKS
LINCOLN        SUNNY     59  32  36 SE10      30.12F
OMAHA EPPLEY   SUNNY     55  28  35 S3        30.13F
BEATRICE       SUNNY     59  32  36 SE9       30.11F
FALLS CITY     SUNNY     59  31  34 CALM      30.14F
NEBRASKA CITY  SUNNY     57  24  28 S5        30.14F
PLATTSMOUTH    SUNNY     56  26  31 S3        30.13F
$$

NEZ044-045-051>053-067-292200-
OMAHA AREA

CITY           SKY/WX    TMP DP  RH WIND       PRES   REMARKS
OMAHA EPPLEY   SUNNY     55  28  35 S3        30.13F
BLAIR          SUNNY     56  30  36 SE7       30.11F
FREMONT        SUNNY     56  31  37 S7        30.11F
MILLARD        SUNNY     56  31  38 SE3       30.11F
OFFUTT AFB     SUNNY     56  31  38 S2        30.12F
PLATTSMOUTH    SUNNY     56  26  31 S3        30.13F
WAHOO          FAIR      57  28  32 S7        30.11F
$$



USA.gov is the U.S. government's official web portal to all federal, state and local government web resources and services.